User: anonymous   Login
Location: Unspecified
(0.0000°N, 0.0000°E)
Time: 18:52:34
(UTC+00:00)
Language:

CUTE-I - Orbit

View from above orbital plane
View from above orbital plane
View from above satellite
View from above satellite

Ground track
Ground track

The orbit data is extracted from the following two-line orbital elements,

1 27844U 03031E   18175.55689950  .00000052  00000-0  43247-4 0  9992
2 27844  98.6860 184.1046 0009686 358.1216   1.9924 14.22119273777247
Epoch (UTC): 24 June 2018 13:21:56
Eccentricity: 0.0009686
inclination: 98.6860°
perigee height: 811 km
apogee height: 825 km
right ascension of ascending node: 184.1046°
argument of perigee: 358.1216°
revolutions per day: 14.22119273
mean anomaly at epoch: 1.9924°
orbit number at epoch: 77724

The dashed part of the orbit path shows where the satellite is in the earth's shadow,  

DLR